Location: Bothwell
(42.3833°S, 147.0000°E)
Time: 22:26:37
(UTC+10:00)

Envisat - Pass Details

Date: 25 February 2024
Orbit: 762 x 764 km, 98.3° (Epoch: 22 April)

Event Time Altitude Azimuth Distance (km) Brightness Sun altitude
Exits shadow 05:00:49 18° 251° (WSW) 1,820 4.6 -18.6°
Drops below altitude 10° 05:03:09 10° 225° (SW) 2,329 5.4 -18.2°
Sets 05:06:05 0° 208° (SSW) 3,264 6.3 -17.8°
